DECAYED

STARLINK-31216, 58857 (Decayed)

Orbit data source: Space-Track

STARLINK-31216, 58857 was a payload satellite owned by SpaceX/Seattle (US) in LEO that was launched on Mon, 29 Jan 2024 UTC via an FALCON 9 launch vehicle from the Air Force Eastern Test Range (AFETR). Payload-class satellites include a variety of spacecraft equipped with specific instruments for various scientific and technological missions. These include communications satellites like Starlink; space stations such as the ISS; scientific satellites like the Hubble; Earth observation satellites from companies like Planet Labs, Umbra, and HawkEye 360; GPS; miniature CubeSats for education and research; and military/defense satellites.

Not visible in the next 10 days
Identifier
58857, 2024-019E
Orbit
Decayed
Country
Flag of USUS
Related business
Manufacturer
SpaceX/Seattle
Mission
Decayed Commercial Communications
Bus & Motor
STARLINK V2M, Unknown motor
Mass
730 kg wet, ~700 kg dry
Launch date (UTC)
2024-01-29 (2 years ago)
Launch vehicle
FALCON 9
Launch site
Air Force Eastern Test Range (AFETR)
Object type
Payload
Rocket body
Debris
Shape & HBR
Box + 2 Pan, 17.7 m
Radar Cross Section
33.884 m², Large (>1 m²)

Expand to show TLE details & history
Last TLE update: 9 months ago

TLE from 9 months ago
0 STARLINK-31216
1 58857U 24019E   25279.62560311  .11921400  89160-5  59634-2 0  9994
2 58857  42.9955   8.8339 0004470 283.3611 222.6876 16.19808260 95614
Epoch: 2025-10-06T15:00Z
TLE epoch observation values (Epoch: 2025-10-06T15:00:52.108Z)
Latitude
22.4865°
Longitude
-78.10427°
Altitude
221.787 km
Speed
7.776 km/s
True Right ascension
10h 50m 33s
True Declination
22° 21' 19"
Sunlit
Object was in daylight at epoch
Visualization orbit readout
Latitude
Unknown
Longitude
Unknown
Altitude
Unknown
Speed
Unknown
Apparent Right ascension
Unknown
Apparent Declination
Unknown
Sunlit
N/A
Visualization observer readout
Local Sidereal Time
23:08:20
Azimuth
Unknown
Elevation
Unknown
Doppler factor
Unknown
Orbital elements
Apogee altitude
225.046 km
Perigee altitude
219.145 km
Semi-major axis
6,600.233 km
Eccentricity
0.00045
Inclination
42.9955°
RAAN
8.8339°
Arg. of periapsis
283.3611°
True anomaly
222.65289°
Mean anomaly
222.6876°
Eccentric anomaly
222.67024°
Mean motion
4.04766 °/min
Orbital period
88.94 mins
BSTAR
0.0059634
Loading maneuver chart data...
Computing Atmospheric mass density...
Loading historical data...
Loading historical data...
Loading historical data...
Loading historical data...
Loading historical data...
Loading historical data...
Loading historical data...

Documentation

Showing up to 5 results
|